WetterOnline ( http://www.wetteronline.de )

Wetter aktuell Potsdam

Aktuelles Wetter: Potsdam (100m)

6-stündlich | Neueste Meldungen
Ortszeit Temperatur Wetter
Mo, 20.08. 20:00 21.6° C bewölkt
Mo, 20.08. 14:00 22.5° C bewölkt
Mo, 20.08. 8:00 18.6° C wolkig
Mo, 20.08. 2:00 18.5° C wolkenlos
So, 19.08. 20:00 26.2° C leicht bewölkt
So, 19.08. 14:00 28.2° C leicht bewölkt
So, 19.08. 8:00 16.8° C leicht bewölkt
So, 19.08. 2:00 18.2° C leicht bewölkt
Ortszeit Temperatur Wetter
Mo, 20.08. 22:00 21.2° C bewölkt
Mo, 20.08. 21:50 21.2° C bedeckt
Mo, 20.08. 21:40 21.2° C bedeckt
Mo, 20.08. 21:30 21.2° C bewölkt
Mo, 20.08. 21:20 21.2° C bedeckt
Mo, 20.08. 21:10 21.2° C bedeckt
Mo, 20.08. 21:00 21.1° C bewölkt
Mo, 20.08. 20:30 21.3° C bewölkt
Mo, 20.08. 20:00 21.6° C bewölkt
Mo, 20.08. 19:30 21.8° C bewölkt
Mo, 20.08. 19:00 22.2° C bewölkt
Ortszeit Relative Feuchte Sichtweite
Mo, 20.08. 20:00 71% 45 km
Mo, 20.08. 14:00 60% 35 km
Mo, 20.08. 8:00 72% 35 km
Mo, 20.08. 2:00 71% 40 km
So, 19.08. 20:00 39% 45 km
So, 19.08. 14:00 31% 45 km
So, 19.08. 8:00 74% 45 km
So, 19.08. 2:00 67% 50 km
Ortszeit Relative Feuchte Sichtweite
Mo, 20.08. 22:00 73% 45 km
Mo, 20.08. 21:50 73% -
Mo, 20.08. 21:40 73% -
Mo, 20.08. 21:30 74% 45 km
Mo, 20.08. 21:20 74% -
Mo, 20.08. 21:10 73% -
Mo, 20.08. 21:00 74% 45 km
Mo, 20.08. 20:30 73% 45 km
Mo, 20.08. 20:00 71% 45 km
Mo, 20.08. 19:30 70% 45 km
Mo, 20.08. 19:00 68% 45 km
Ortszeit Niederschlagsmenge Niederschlagsart
Mo, 20.08. 20:00 0.1 l/m2 in 12 Std. Regen
Mo, 20.08. 14:00 0.0 l/m2 in 6 Std. -
Mo, 20.08. 8:00 0.0 l/m2 in 12 Std. -
Mo, 20.08. 2:00 0.0 l/m2 in 6 Std. -
So, 19.08. 20:00 0.0 l/m2 in 12 Std. -
So, 19.08. 14:00 0.0 l/m2 in 6 Std. -
So, 19.08. 8:00 0.0 l/m2 in 12 Std. -
So, 19.08. 2:00 0.0 l/m2 in 6 Std. -
Ortszeit Niederschlagsmenge Niederschlagsart
Mo, 20.08. 22:00 0.0 l/m2 in 1 Std. -
Mo, 20.08. 21:50 keine Meldung -
Mo, 20.08. 21:40 keine Meldung -
Mo, 20.08. 21:30 0.0 l/m2 in 1 Std. -
Mo, 20.08. 21:20 keine Meldung -
Mo, 20.08. 21:10 keine Meldung -
Mo, 20.08. 21:00 0.0 l/m2 in 1 Std. -
Mo, 20.08. 20:30 0.0 l/m2 in 1 Std. -
Mo, 20.08. 20:00 0.0 l/m2 in 1 Std. Regen
Mo, 20.08. 19:30 0.0 l/m2 in 1 Std. -
Mo, 20.08. 19:00 0.0 l/m2 in 1 Std. -
Ortszeit Stärke Spitze Richtung
km/h Bft. km/h Grad Sektor
Mo, 20.08. 20:00 14 3 40 270° W
Mo, 20.08. 14:00 17 3 37 280° W
Mo, 20.08. 8:00 11 2 22 240° SW
Mo, 20.08. 2:00 13 3 24 280° W
So, 19.08. 20:00 7 2 29 320° NW
So, 19.08. 14:00 11 2 22 280° W
So, 19.08. 8:00 4 1 14 290° W
So, 19.08. 2:00 11 2 18 250° W
Ortszeit Stärke Spitze Richtung
km/h Bft. km/h Grad Sektor
Mo, 20.08. 22:00 18 3 29 280° W
Mo, 20.08. 21:50 18 3 - 280° W
Mo, 20.08. 21:40 17 3 - 280° W
Mo, 20.08. 21:30 15 3 24 270° W
Mo, 20.08. 21:20 15 3 - 270° W
Mo, 20.08. 21:10 17 3 - 260° W
Mo, 20.08. 21:00 14 3 25 260° W
Mo, 20.08. 20:30 17 3 24 260° W
Mo, 20.08. 20:00 14 3 32 270° W
Mo, 20.08. 19:30 14 3 32 260° W
Mo, 20.08. 19:00 20 4 33 270° W
Ortszeit Untergrenze Bedeckung Gattung
total tief tief mittel hoch
Mo, 20.08. 20:00 1080 m 7/8 7/8 Cu - -
Mo, 20.08. 14:00 990 m 7/8 7/8 Cu - -
Mo, 20.08. 8:00 1200 m 5/8 5/8 Sc - -
Mo, 20.08. 2:00 - 0/8 0/8 - - -
So, 19.08. 20:00 9000 m 3/8 - - - Ci
So, 19.08. 14:00 1380 m 5/8 1/8 Cu - Ci
So, 19.08. 8:00 1500 m 6/8 1/8 Sc - Ci
So, 19.08. 2:00 9000 m 2/8 0/8 - - Ci
Ortszeit Bedeckungsgrad in Achtel und Wolkenuntergrenze
Mo, 20.08. 22:00 7(2100m)
Mo, 20.08. 21:50 1(1050m) 8(2100m)
Mo, 20.08. 21:40 1(1050m) 8(2100m)
Mo, 20.08. 21:30 7(2100m) 8(1800m)
Mo, 20.08. 21:20 8(2100m)
Mo, 20.08. 21:10 8(2100m)
Mo, 20.08. 21:00 1(1200m) 7(2100m)
Mo, 20.08. 20:30 1(1200m) 7(2100m)
Mo, 20.08. 20:00 1(1080m) 7(1800m)
Mo, 20.08. 19:30 1(990m) 7(1500m) 8(2100m)
Mo, 20.08. 19:00 1(990m) 7(1500m)
Ortszeit Luftdruck NN (hPa) Tendenz (hPa in 3 Std.)
Mo, 20.08. 20:00 1017 + 0,1
Mo, 20.08. 14:00 1017 + 0,2
Mo, 20.08. 8:00 1016 + 0,5
Mo, 20.08. 2:00 1016 + 0,1
So, 19.08. 20:00 1016 - 1,1
So, 19.08. 14:00 1019 - 1,7
So, 19.08. 8:00 1022 + 0,5
So, 19.08. 2:00 1021 + 0,2
Ortszeit Luftdruck NN (hPa) Tendenz (hPa in 3 Std.)
Mo, 20.08. 22:00 1018 + 0,7
Mo, 20.08. 21:50 1018 keine Meldung
Mo, 20.08. 21:40 1018 keine Meldung
Mo, 20.08. 21:30 1018 + 0,7
Mo, 20.08. 21:20 1018 keine Meldung
Mo, 20.08. 21:10 1018 keine Meldung
Mo, 20.08. 21:00 1018 + 0,3
Mo, 20.08. 20:30 1017 + 0,1
Mo, 20.08. 20:00 1017 + 0,1
Mo, 20.08. 19:30 1017 - 0,1
Mo, 20.08. 19:00 1017 - 0,3
Ortszeit Schneehöhe (cm)
Mo, 20.08. 20:00 0
Mo, 20.08. 14:00 0
Mo, 20.08. 8:00 0
Mo, 20.08. 2:00 0
So, 19.08. 20:00 0
So, 19.08. 14:00 0
So, 19.08. 8:00 0
So, 19.08. 2:00 0
Ortszeit Schneehöhe (cm)
Mo, 20.08. 22:00 -
Mo, 20.08. 21:50 -
Mo, 20.08. 21:40 -
Mo, 20.08. 21:30 -
Mo, 20.08. 21:20 -
Mo, 20.08. 21:10 -
Mo, 20.08. 21:00 -
Mo, 20.08. 20:30 -
Mo, 20.08. 20:00 0
Mo, 20.08. 19:30 -
Mo, 20.08. 19:00 -
Link zu dieser Seite / Seite empfehlen

Das Wetter in ...